Location: Caseificio
(44.7500°N, 11.0500°E)
Time: 16:14:08
(UTC+00:00)

Cosmos 1606 Rocket - Pass Details

Date: 26 May 2022
Orbit: 601 x 632 km, 82.5° (Epoch: 06 July)

Event Time Altitude Azimuth Distance (km) Brightness Sun altitude
Rises 02:27:53 0° 347° (NNW) 2,917 7.5 -10.6°
Reaches altitude 10° 02:30:09 10° 343° (NNW) 2,000 6.6 -10.3°
Maximum altitude 02:34:30 57° 266° (W) 729 3.7 -9.7°
Drops below altitude 10° 02:38:46 10° 187° (S) 1,965 5.7 -9.2°
Enters shadow 02:40:14 - 185° (S) 2,553 6.3 -9.0°
